Weather History for Point Salines, Grenada

Change the Weather History Date:

Sunday, March 17, 2013

  Actual Average Record
Temperature  
Mean Temperature 81 °F -  
Max Temperature 87 °F 84 °F 87 °F (2005)
Min Temperature 75 °F 75 °F 73 °F (1998)
Cooling Degree Days 16    
Growing Degree Days 31 (Base 50)    
Moisture  
Dew Point 70 °F    
Average Humidity 69    
Maximum Humidity 78    
Minimum Humidity 55    
Precipitation  
Precipitation 0.00 in - - ()
Sea Level Pressure  
Sea Level Pressure 29.96 in    
Wind  
Wind Speed 12 mph ()    
Max Wind Speed 23 mph    
Max Gust Speed -    
Visibility 7.9 miles    
Events      
Averages and records for this station are not official NWS values.
T = Trace of Precipitation, MM = Missing Value Source: Averaged Metar Reports

Daily Weather History Graph

Daily Weather History Graph

Search for Another Location

Airport:

Trip Planner

Search our weather history database for the weather conditions in past years. The results will help you decide how hot, cold, wet, or windy it might be!

Date:

Astronomy

Mar. 17, 2013 Rise Set
Actual Time 6:13 AM AST 6:17 PM AST
Civil Twilight 5:51 AM AST 6:38 PM AST
Nautical Twilight 5:27 AM AST 7:03 PM AST
Astronomical Twilight 5:02 AM AST 7:28 PM AST
Moon 10:17 AM AST (3/17) 11:17 PM AST (3/17)
Length of Visible Light 12h 47m
Length of Day
12h 04m
Waxing Crescent, 31% of the Moon is Illuminated
Mar 17
Waxing Crescent
Mar 19
First Quarter
Mar 27
Full
Apr 3
Last Quarter
Apr 10
New

Hourly Weather History & Observations

Time (AST) Temp. Heat Index Dew Point Humidity Pressure Visibility Wind Dir Wind Speed Gust Speed Precip Events Conditions
12:00 AM 78.8 °F - 71.6 °F 78% 29.98 in 6.2 mi ENE 5.8 mph - N/A   Scattered Clouds
1:00 AM 77.0 °F - 69.8 °F 78% 29.95 in 6.2 mi ENE 10.4 mph - N/A   Scattered Clouds
2:00 AM 77 °F - 69 °F 71% 29.95 in 16 mi East 10.4 mph - -   Scattered Clouds
2:00 AM 77.0 °F - 69.8 °F 78% 29.95 in 6.2 mi East 10.4 mph - N/A   Scattered Clouds
3:00 AM 77.0 °F - 69.8 °F 78% 29.92 in 6.2 mi East 9.2 mph - N/A   Mostly Cloudy
4:00 AM 78.8 °F - 68.0 °F 69% 29.95 in 6.2 mi East 13.8 mph - N/A   Mostly Cloudy
5:00 AM 78 °F - 69 °F 66% 29.96 in 12 mi East 16.1 mph - -   Widespread Dust
5:00 AM 78.8 °F - 68.0 °F 69% 29.95 in 6.2 mi East 16.1 mph - N/A   Mostly Cloudy
6:00 AM 78.8 °F - 68.0 °F 69% 29.95 in 6.2 mi East 17.3 mph - N/A   Mostly Cloudy
7:00 AM 78.8 °F - 69.8 °F 74% 29.98 in 6.2 mi East 9.2 mph - N/A   Partly Cloudy
8:00 AM 82 °F - 70 °F 59% 30.01 in 11 mi East 17.3 mph - -   Widespread Dust
8:00 AM 82.4 °F 86.3 °F 69.8 °F 66% 30.01 in 6.2 mi East 17.3 mph - N/A   Partly Cloudy
9:00 AM 84.2 °F 88.4 °F 69.8 °F 62% 30.01 in 6.2 mi East 20.7 mph - N/A   Partly Cloudy
10:00 AM 84.2 °F 88.4 °F 69.8 °F 62% 30.01 in 6.2 mi ESE 21.9 mph - N/A   Partly Cloudy
11:00 AM 86.0 °F 91.8 °F 71.6 °F 62% 30.01 in 6.2 mi ESE 23.0 mph - N/A   Mostly Cloudy
12:00 PM 84.2 °F 89.6 °F 71.6 °F 66% 30.01 in 6.2 mi ESE 23.0 mph - N/A   Mostly Cloudy
1:00 PM 86.0 °F 90.4 °F 69.8 °F 58% 29.98 in 6.2 mi ESE 20.7 mph - N/A   Mostly Cloudy
2:00 PM 85 °F - 72 °F 56% 29.96 in 16 mi East 17.3 mph - -   Scattered Clouds
2:00 PM 86.0 °F 91.8 °F 71.6 °F 62% 29.95 in 6.2 mi East 17.3 mph - N/A   Mostly Cloudy
3:00 PM 84.2 °F 89.6 °F 71.6 °F 66% 29.92 in 6.2 mi ESE 16.1 mph - N/A   Mostly Cloudy
4:00 PM 84.2 °F 88.4 °F 69.8 °F 62% 29.92 in 6.2 mi ESE 20.7 mph - N/A   Mostly Cloudy
5:00 PM 84 °F - 70 °F 55% 29.94 in 16 mi ESE 13.8 mph - -   Scattered Clouds
5:00 PM 84.2 °F 88.4 °F 69.8 °F 62% 29.92 in 6.2 mi ESE 13.8 mph - N/A   Mostly Cloudy
6:00 PM 80.6 °F 84.6 °F 71.6 °F 74% 29.92 in 6.2 mi East 11.5 mph - N/A   Mostly Cloudy
7:00 PM 78.8 °F - 71.6 °F 78% 29.95 in 6.2 mi East 9.2 mph - N/A   Mostly Cloudy
8:00 PM 79 °F - 72 °F 73% 29.96 in 14 mi East 8.1 mph - -   Widespread Dust
8:00 PM 78.8 °F - 71.6 °F 78% 29.95 in 6.2 mi East 8.1 mph - N/A   Mostly Cloudy
9:00 PM 78.8 °F - 71.6 °F 78% 29.95 in 6.2 mi East 6.9 mph - N/A   Mostly Cloudy
10:00 PM 78.8 °F - 71.6 °F 78% 29.98 in 6.2 mi East 9.2 mph - N/A   Mostly Cloudy
11:00 PM 79 °F - 71 °F 69% 29.99 in 11 mi ENE 8.1 mph - -   Widespread Dust
11:00 PM 78.8 °F - 69.8 °F 74% 29.98 in 6.2 mi ENE 8.1 mph - N/A   Mostly Cloudy